EHI
2 1 3 7 7 3 0 0 0 0 0 0 0 0 0 0 0 0 0 0 0 1 5 11 17 19 18 14 10 8 6 7 6 2 0 0 0 0 0 0 1 1 1 0 0 0 0 1 1
2 2 4 5 4 2 0 0 0 0 0 0 0 0 0 0 0 0 0 0 0 1 4 9 16 20 18 14 11 8 7 7 5 2 0 0 0 0 0 0 0 0 0 0 0 0 0 0 1
3 3 4 3 1 0 0 0 0 0 0 1 1 1 0 0 0 0 0 0 0 0 2 9 16 19 18 15 11 8 7 6 4 2 1 0 0 0 0 0 0 0 0 0 0 0 0 0 0
3 4 4 2 1 0 0 0 0 0 0 1 2 2 1 0 0 0 0 0 0 0 2 9 15 17 17 14 11 8 6 6 5 4 2 1 1 0 0 0 0 0 0 0 0 0 0 0 0
5 4 3 1 0 0 0 0 0 0 0 2 3 3 2 2 1 1 0 0 0 0 3 8 14 16 16 14 12 10 8 8 7 6 4 3 2 1 1 0 0 0 0 0 0 0 0 0 0
4 3 1 0 0 0 0 0 0 0 0 1 3 3 4 4 3 1 0 0 0 1 3 8 13 15 15 15 13 12 11 10 9 8 6 5 3 2 2 1 0 0 0 0 0 1 1 0 0
2 1 0 0 0 0 0 0 0 0 0 1 2 3 5 7 5 2 1 0 0 1 3 6 9 11 12 13 13 13 11 10 9 8 6 4 3 2 1 1 0 0 0 0 0 1 1 0 0
1 0 0 0 0 0 0 0 0 0 0 0 1 2 6 8 7 4 2 1 0 0 1 3 5 6 6 8 10 10 9 9 8 7 6 4 2 1 0 0 0 0 0 0 0 1 1 0 0
0 0 0 0 0 0 0 0 0 0 0 0 1 3 6 9 8 6 4 2 1 1 0 1 2 2 3 3 5 6 6 7 7 6 6 4 1 0 0 0 0 0 0 0 0 0 1 0 0
0 0 0 0 0 0 0 0 0 0 1 1 3 6 8 8 7 6 5 3 2 1 0 0 0 2 3 2 2 2 3 4 5 5 5 3 1 0 0 0 0 0 0 0 0 0 0 0 0
0 0 0 0 0 0 0 0 0 0 1 2 4 9 11 9 8 6 5 4 3 1 0 0 1 2 3 3 2 1 1 2 3 4 4 2 1 0 0 0 0 0 0 0 0 0 0 0 0
0 0 0 0 0 0 0 0 0 0 0 1 4 8 11 11 8 6 4 4 4 2 1 1 1 3 5 4 3 3 2 2 3 3 3 2 1 0 0 0 1 1 0 0 0 0 0 0 0
0 0 0 0 0 0 0 0 0 0 0 1 5 8 10 10 9 7 5 6 7 5 4 3 3 5 5 4 3 3 3 3 3 2 1 1 0 1 2 2 2 2 1 0 0 0 0 0 0
0 0 0 0 0 0 0 0 0 0 1 2 6 8 8 9 10 10 8 7 8 7 6 5 5 7 8 6 4 3 4 5 4 3 1 1 1 1 3 4 3 2 1 0 0 0 0 1 1
0 0 0 0 0 0 0 0 0 0 1 3 5 7 7 8 10 11 10 9 8 7 7 7 7 9 11 9 6 4 4 5 5 4 3 2 1 1 2 3 3 2 1 0 0 0 0 0 0
0 0 0 0 0 0 0 0 0 0 0 2 6 8 8 8 8 9 9 10 10 9 9 9 8 10 12 11 8 5 5 4 4 4 3 2 1 1 1 1 1 2 3 2 0 0 0 0 0
0 0 0 0 0 0 0 0 0 0 0 2 6 9 9 8 7 7 8 10 11 12 12 11 10 9 11 10 7 5 4 3 3 3 3 2 1 1 1 0 0 2 3 3 1 0 0 0 0
0 0 0 0 0 0 0 0 0 0 0 1 4 8 9 8 7 7 7 8 10 13 15 15 13 11 11 10 8 5 4 4 4 3 3 3 3 3 2 1 0 1 2 2 2 1 0 0 1
0 0 0 0 0 0 0 0 0 0 0 0 2 6 8 8 7 7 6 6 8 12 15 17 17 15 15 14 12 9 6 6 6 5 4 3 4 5 4 2 0 2 3 3 2 2 1 1 1
0 0 0 0 0 0 0 0 0 0 0 0 1 3 7 8 8 8 6 5 8 12 15 16 18 18 17 17 16 13 10 9 9 9 8 7 7 8 8 5 2 3 5 5 2 2 2 1 1
0 0 0 0 0 0 0 0 1 1 1 1 1 2 6 8 9 9 8 7 8 11 12 13 15 16 16 18 18 17 15 12 12 13 12 12 12 12 11 9 6 5 5 5 3 2 2 1 1
0 0 0 0 0 0 0 0 1 2 3 2 3 3 5 7 8 8 9 8 8 8 9 11 13 15 18 20 21 20 18 16 15 16 15 15 15 14 13 12 11 8 6 5 4 3 2 1 1
0 0 0 0 0 0 0 0 1 2 2 3 4 5 6 7 6 7 9 9 8 8 9 12 15 19 22 23 22 21 19 18 17 17 16 15 14 14 12 12 13 12 9 6 6 5 3 3 3
0 0 0 0 0 0 0 0 0 1 1 2 4 5 6 7 7 8 11 12 12 11 11 13 18 23 26 25 22 21 20 18 18 18 17 14 12 11 10 11 13 13 12 9 9 7 5 6 7
0 0 0 0 0 0 0 0 0 0 1 2 4 5 7 9 10 11 14 16 15 14 14 16 21 26 26 24 23 22 21 18 17 17 16 14 11 10 10 10 12 12 13 11 10 9 7 6 9
0 0 0 0 0 0 0 0 0 0 2 4 4 7 11 13 13 13 13 14 16 16 17 17 21 25 24 22 22 22 21 18 16 16 15 15 14 12 10 11 10 11 11 10 10 10 8 6 7
0 0 0 0 0 0 0 0 0 1 4 4 5 8 14 16 15 13 12 12 15 17 17 17 19 21 21 20 20 20 19 18 16 15 15 16 18 15 12 11 12 11 10 10 11 11 10 8 6
0 0 0 0 0 0 0 0 1 2 4 4 5 9 15 17 17 17 16 15 18 19 19 19 18 18 19 19 18 17 17 18 17 15 15 17 20 18 14 13 14 14 12 11 11 11 11 10 8
0 0 0 0 0 0 0 0 1 2 3 4 6 10 15 18 20 22 22 20 21 21 21 20 18 16 16 17 16 15 14 15 16 15 15 18 21 19 17 16 17 17 15 12 11 12 11 10 9
0 0 0 0 0 0 0 1 1 2 3 5 6 10 16 20 22 25 24 22 22 22 22 20 17 15 15 16 15 14 12 12 14 14 15 19 22 20 19 18 18 17 15 12 12 12 11 9 9
Wind_Speed
11 9 5 5 6 1 10 9 7 6 6 6 5 5 6 8 7 7 6 5 4 5 7 10 8 7 6 6 6 6 6 6 6 6 7 7 8 9 9 9 9 10 10 11 10 9 9 8 8
7 6 6 6 3 6 10 9 9 8 6 4 4 4 5 7 7 6 5 4 4 5 7 8 9 7 6 6 6 6 6 6 6 6 6 7 8 9 9 9 10 9 10 10 10 8 8 8 7
6 6 6 3 5 8 9 8 8 7 4 2 4 5 5 6 5 4 5 5 5 6 6 10 8 7 6 6 6 6 6 6 6 6 6 7 8 9 9 9 10 9 9 9 9 8 7 7 7
5 6 5 1 9 9 7 6 5 4 4 3 2 5 6 5 3 5 6 5 5 6 6 10 8 7 6 5 6 5 5 6 6 6 6 8 9 9 9 9 9 9 8 8 8 8 7 7 7
6 5 1 6 10 8 6 5 3 4 4 4 3 5 7 5 6 7 6 5 5 6 7 10 9 7 6 5 5 5 6 6 6 7 7 8 8 9 8 8 8 8 8 8 8 8 7 6 6
5 4 3 8 9 7 6 5 3 4 4 4 3 5 7 6 6 6 6 5 5 6 7 9 10 8 6 6 5 5 6 6 6 7 7 7 8 8 8 8 8 8 8 8 8 7 7 6 6
5 3 5 7 7 7 6 5 4 4 3 4 2 4 7 6 6 6 6 5 5 6 6 6 7 8 8 6 5 4 5 5 6 6 7 7 7 7 7 7 7 7 7 7 7 7 7 7 6
5 3 3 6 7 8 6 4 4 4 5 5 2 3 5 6 6 6 6 5 5 5 5 5 6 5 5 6 6 4 4 5 5 6 6 6 7 7 7 7 7 7 7 6 7 7 7 7 6
5 3 5 8 7 6 5 3 3 3 4 4 3 5 7 9 7 7 6 5 5 5 4 4 5 4 4 4 5 5 5 6 7 6 6 5 4 6 6 6 6 6 6 6 6 7 6 7 8
4 3 7 7 6 5 4 3 2 2 4 4 5 7 8 9 7 6 5 5 5 4 4 3 4 3 3 3 3 2 3 5 4 3 3 3 2 2 3 7 6 5 6 6 6 6 7 7 5
2 3 5 5 5 4 3 3 2 0 3 3 5 8 9 8 7 6 5 4 5 4 4 4 4 2 2 2 2 2 2 3 4 4 3 2 2 2 3 3 5 5 6 4 6 6 3 3 2
3 3 4 3 4 4 3 2 3 3 5 5 6 9 9 8 6 6 5 4 5 4 4 4 4 4 2 1 2 2 2 2 2 3 2 2 1 1 1 1 2 3 2 2 2 2 2 2 2
3 3 3 3 2 3 2 2 2 3 4 6 8 9 9 8 6 5 5 5 5 4 4 4 3 3 3 2 1 2 2 2 3 2 2 1 2 2 1 1 1 1 2 3 2 2 2 2 3
3 3 3 1 1 1 1 2 2 4 6 8 8 8 8 7 6 6 5 4 4 4 5 4 4 4 3 3 2 1 2 2 2 2 2 2 2 1 2 2 1 1 1 1 1 2 2 2 2
4 4 3 1 1 1 2 2 3 5 6 8 8 7 7 6 6 5 4 4 3 4 5 5 4 4 4 3 2 2 2 2 2 2 3 3 2 2 2 2 2 1 1 2 2 2 2 2 3
6 6 4 2 0 0 5 2 5 5 6 6 7 7 7 6 6 5 5 4 4 4 4 4 4 4 4 3 2 1 1 1 1 1 2 3 3 3 2 2 2 2 2 2 2 2 2 1 2
7 5 3 2 1 2 5 2 4 5 6 6 6 7 7 7 7 6 6 5 5 4 4 4 4 4 4 4 3 2 1 1 0 1 1 2 3 3 3 2 1 2 2 2 2 1 2 2 2
4 4 3 2 1 4 5 3 2 5 6 6 7 7 7 7 7 6 6 5 5 5 5 4 5 4 4 4 3 2 1 1 1 1 1 2 2 2 2 2 2 2 2 1 1 2 2 2 2
6 7 5 2 1 5 6 5 3 4 6 6 7 7 7 7 7 7 6 5 5 6 5 5 5 5 4 3 3 3 2 2 2 2 2 2 2 2 2 2 2 2 1 1 2 2 3 2 2
8 8 6 2 1 5 5 5 3 4 5 6 7 7 7 8 8 7 7 7 6 6 6 6 6 5 5 3 2 2 2 2 1 1 1 2 2 2 3 2 2 2 1 1 2 2 2 2 1
9 8 6 4 4 6 7 7 6 5 5 5 6 7 7 8 8 9 8 8 7 7 6 5 5 5 5 5 4 3 3 3 2 2 2 2 2 2 2 2 2 2 2 2 2 2 3 2 1
7 3 5 6 8 4 5 6 4 6 6 6 7 7 7 7 8 8 9 8 8 7 6 6 5 5 4 5 4 4 3 3 2 2 1 2 2 2 2 2 2 2 2 2 3 2 2 3 2
4 3 6 7 8 8 6 8 3 5 5 6 7 7 7 7 7 8 8 8 7 7 6 6 6 5 5 5 5 5 4 3 2 2 2 2 2 3 3 3 2 2 2 2 3 2 3 2 2
4 5 7 8 9 8 5 7 3 3 2 3 5 6 6 6 7 7 7 8 7 7 6 6 6 5 5 5 5 5 4 4 3 3 2 3 2 2 3 3 3 3 3 3 3 3 2 2 3
9 9 7 7 7 4 2 6 2 1 0 2 3 4 6 6 7 7 8 8 8 7 7 6 6 6 6 6 5 5 5 5 5 4 3 3 2 2 2 2 3 3 3 3 3 3 3 3 2
10 10 8 7 6 3 5 6 0 1 1 2 2 4 5 6 6 7 8 8 8 7 7 7 6 6 5 5 4 4 5 4 3 4 3 3 2 2 1 2 3 3 3 3 3 3 3 2 2
9 10 9 10 8 8 5 3 3 3 3 3 4 4 4 5 6 6 7 7 7 7 7 6 7 6 5 5 5 4 4 4 3 3 4 3 2 2 2 2 3 3 3 3 3 2 2 2 2
9 7 7 8 7 9 6 6 3 4 3 4 4 4 4 5 6 6 6 6 5 5 5 5 6 6 5 5 5 4 4 4 3 3 3 2 3 2 2 2 2 3 3 3 3 3 2 2 2
9 9 8 7 8 9 7 2 2 1 1 3 3 3 4 4 5 6 6 6 6 5 5 5 5 5 5 5 4 4 4 4 4 4 4 3 3 3 3 2 2 2 2 2 3 3 2 2 2
9 9 10 9 7 8 9 2 4 1 0 2 2 2 2 3 4 5 5 5 5 6 5 5 5 5 5 5 5 5 4 4 5 4 3 3 3 3 3 2 3 3 2 2 2 2 2 2 3
Wind_Direction
184 186 205 232 232 127 56 50 44 47 54 49 42 31 39 33 20 54 77 92 99 119 127 139 136 134 130 132 134 133 131 131 134 138 146 152 154 156 157 154 152 152 153 153 153 153 153 152 151
180 187 227 240 289 60 58 44 46 47 60 75 70 55 58 63 53 82 102 103 116 123 133 130 129 135 133 136 137 136 134 132 130 134 142 151 155 155 156 154 149 146 147 149 149 152 152 152 151
186 222 258 260 38 43 49 43 48 63 69 60 74 56 44 57 75 85 93 120 124 123 128 119 128 134 137 138 137 139 136 132 128 125 132 144 149 150 150 150 149 147 147 149 149 152 152 150 150
213 226 235 341 57 51 47 45 50 60 76 65 72 84 79 60 67 93 112 123 118 116 119 116 126 130 133 132 133 135 135 130 127 124 124 136 142 144 147 147 150 151 151 149 149 147 146 145 144
241 259 226 67 58 55 51 42 34 42 54 65 70 84 87 82 89 107 119 120 115 112 115 118 124 131 130 127 129 132 132 130 128 126 126 129 135 142 146 149 149 151 151 150 148 146 145 144 141
251 259 24 54 58 57 50 40 34 46 72 84 93 94 89 103 111 119 118 117 112 110 114 120 130 134 132 131 135 139 137 135 136 137 135 132 132 136 142 145 148 150 152 152 151 149 147 145 139
297 342 38 48 56 60 48 28 15 31 62 67 66 89 106 119 118 124 124 124 112 111 116 125 138 142 142 137 131 129 133 134 137 137 135 136 138 138 140 144 147 150 154 157 157 157 154 149 149
298 296 50 52 42 50 49 38 29 12 56 74 77 80 110 129 136 134 128 120 116 117 123 130 132 132 143 135 128 128 136 144 140 137 136 146 154 153 155 159 150 154 156 159 161 162 160 160 161
268 280 41 36 29 42 40 36 56 56 91 94 63 59 99 131 144 141 135 129 122 119 125 135 130 135 137 132 132 156 151 151 155 149 156 179 174 160 163 140 142 155 156 157 161 166 172 180 175
268 355 32 19 14 20 22 26 67 134 114 106 104 101 120 141 149 147 142 133 127 131 133 134 126 132 136 131 129 153 134 131 141 134 156 169 155 160 155 133 151 154 154 160 163 173 189 208 188
293 342 359 9 15 4 21 43 76 70 72 90 129 137 143 149 150 150 140 131 127 136 136 134 128 134 136 130 136 126 112 120 139 144 160 154 171 162 168 157 161 167 175 174 164 182 194 188 190
282 315 329 348 352 346 13 47 74 43 47 77 119 138 146 153 153 148 143 143 134 138 139 133 134 135 137 140 134 146 133 133 134 138 171 146 140 155 146 157 153 163 157 153 170 163 166 184 198
260 304 337 343 338 15 38 62 63 70 86 107 121 138 149 152 149 146 144 141 140 149 148 140 147 137 143 151 172 136 133 132 131 142 146 153 160 155 139 138 166 176 142 158 166 163 168 185 185
318 305 302 317 27 87 58 82 113 99 121 129 137 146 152 151 151 149 152 148 151 155 147 151 158 146 150 159 159 150 151 151 155 148 143 179 178 151 167 169 177 176 163 136 166 172 193 197 186
261 255 242 159 63 73 261 126 105 117 142 145 149 149 152 156 157 160 156 159 154 151 147 156 162 156 159 167 173 168 173 163 165 149 164 191 188 174 192 187 191 186 190 183 192 197 208 204 200
235 239 233 134 176 224 274 57 100 137 161 159 157 155 161 166 169 166 162 168 163 156 151 161 166 159 160 165 177 181 170 171 171 168 162 181 191 195 217 208 191 196 200 193 189 205 217 214 222
220 244 263 160 181 271 274 330 116 160 177 171 171 170 173 172 178 175 176 175 167 165 160 165 169 164 163 164 171 186 175 197 202 176 169 168 186 199 222 231 204 215 205 206 226 176 231 215 237
269 274 266 268 164 262 271 292 165 174 191 184 180 178 180 181 179 178 179 175 171 169 168 169 170 169 171 172 173 180 182 186 187 184 171 178 187 197 227 214 207 224 206 214 215 215 219 240 247
285 281 281 301 319 273 271 277 231 182 197 199 192 188 187 188 177 174 177 174 173 173 175 180 181 170 180 181 188 185 186 196 189 190 181 194 204 201 225 239 193 227 209 232 226 227 203 218 231
255 261 267 238 241 272 278 270 229 195 207 207 202 198 193 186 180 179 180 182 180 174 180 184 186 182 188 179 189 195 210 206 190 195 177 209 208 217 210 218 223 220 204 203 231 236 250 218 210
248 262 277 281 258 240 267 240 200 188 191 196 204 204 198 192 187 184 185 187 185 181 181 182 186 188 192 188 190 189 193 211 198 193 198 211 216 218 231 216 242 233 233 203 221 226 232 241 228
248 261 270 266 264 255 263 280 193 182 187 194 200 200 197 192 190 186 185 186 189 183 178 180 182 186 189 196 201 203 211 217 213 219 206 205 212 219 217 218 229 240 242 228 234 215 238 249 253
271 274 258 262 267 267 238 264 207 175 204 201 193 193 189 187 187 185 185 182 186 182 178 172 174 181 188 199 198 210 220 224 214 205 192 227 207 216 222 221 229 239 249 250 261 242 257 249 260
225 225 230 239 254 251 249 268 253 173 215 194 184 183 181 178 179 182 180 176 179 177 176 170 171 181 190 201 204 215 222 229 227 218 212 216 211 210 218 227 233 238 248 243 243 247 237 261 276
225 241 238 229 227 242 184 256 281 51 218 221 195 176 172 176 178 178 175 175 177 179 179 176 177 186 195 201 207 209 217 222 221 229 219 236 232 218 215 233 233 241 241 243 246 242 263 255 256
223 246 265 280 280 259 202 247 173 111 184 191 198 182 174 176 176 177 176 177 178 179 183 184 182 190 197 204 209 215 218 228 225 229 246 233 246 249 245 229 232 237 242 240 235 243 240 240 248
226 238 262 272 274 274 247 223 212 184 199 192 194 185 178 177 174 175 177 178 178 179 186 189 185 188 195 201 206 211 215 227 233 229 228 231 238 240 226 229 228 233 235 243 240 235 243 237 245
256 249 235 248 268 265 250 241 236 192 215 199 199 190 176 173 172 169 171 174 178 180 182 187 188 189 195 199 210 198 203 206 215 226 218 231 246 251 238 225 222 227 230 232 242 230 212 227 238
207 222 241 250 261 271 267 253 70 208 235 216 200 186 179 177 171 168 170 175 177 180 181 180 184 186 192 194 200 207 197 194 201 210 218 219 226 231 232 230 225 222 222 231 237 251 231 232 245
240 235 230 242 244 259 275 268 94 92 250 234 200 168 157 168 170 169 171 170 175 182 183 179 184 187 190 189 197 201 197 198 200 200 211 216 217 222 219 217 212 216 215 233 242 255 243 234 241